Hourly Weather Rumoka

Today, 14 April, Wednesday

Time Temperature Precipitation Wind Pressure Humidity
00:00 +2°C° 0 mm 3 mps 755 mmHg 70%
01:00 +3°C° 0 mm 2 mps 755 mmHg 71%
02:00 +2°C° 0 mm 2 mps 755 mmHg 74%
03:00 +2°C° 0 mm 2 mps 755 mmHg 77%
04:00 +2°C° 0 mm 2 mps 754 mmHg 80%
05:00 +1°C° 0 mm 3 mps 754 mmHg 78%
06:00 +2°C° 0 mm 3 mps 754 mmHg 77%
07:00 +2°C° 0 mm 3 mps 755 mmHg 75%
08:00 +3°C° 0 mm 4 mps 754 mmHg 69%
09:00 +4°C° 0 mm 4 mps 754 mmHg 64%
10:00 +5°C° 0 mm 4 mps 754 mmHg 58%
11:00 +5°C° 0 mm 5 mps 754 mmHg 58%
12:00 +5°C° 0 mm 5 mps 754 mmHg 58%
13:00 +6°C° 0 mm 5 mps 754 mmHg 57%
14:00 +5°C° 0.1 mm 5 mps 754 mmHg 63%
15:00 +5°C° 0.1 mm 5 mps 754 mmHg 68%
16:00 +3°C° 0.1 mm 5 mps 754 mmHg 73%
17:00 +3°C° 0.1 mm 5 mps 754 mmHg 78%
18:00 +2°C° 0.1 mm 5 mps 754 mmHg 83%
19:00 +1°C° 0.1 mm 5 mps 754 mmHg 88%
20:00 +1°C° 0.2 mm 5 mps 754 mmHg 91%
21:00 -1°C° 0.2 mm 6 mps 754 mmHg 93%
22:00 -1°C° 0.2 mm 6 mps 754 mmHg 96%
23:00 -1°C° 0.3 mm 6 mps 753 mmHg 96%

Tomorrow, 15 April, Thursday

Time Temperature Precipitation Wind Pressure Humidity
00:00 -1°C° 0.3 mm 6 mps 753 mmHg 96%
01:00 -1°C° 0.3 mm 6 mps 753 mmHg 96%
02:00 -1°C° 0.6 mm 6 mps 752 mmHg 96%
03:00 -1°C° 0.6 mm 6 mps 752 mmHg 96%
04:00 -1°C° 0.6 mm 6 mps 752 mmHg 97%
05:00 -1°C° 0.9 mm 6 mps 752 mmHg 97%
06:00 -1°C° 0.9 mm 6 mps 752 mmHg 97%
07:00 -1°C° 0.9 mm 6 mps 752 mmHg 97%
08:00 -1°C° 0.2 mm 6 mps 752 mmHg 97%
09:00 -1°C° 0.2 mm 6 mps 752 mmHg 97%
10:00 +1°C° 0.2 mm 5 mps 752 mmHg 97%
11:00 +1°C° 0.2 mm 5 mps 752 mmHg 96%
12:00 +1°C° 0.2 mm 5 mps 752 mmHg 96%
13:00 +2°C° 0.2 mm 5 mps 752 mmHg 96%
14:00 +2°C° 0.3 mm 5 mps 752 mmHg 95%
15:00 +2°C° 0.3 mm 5 mps 751 mmHg 95%
16:00 +3°C° 0.3 mm 5 mps 751 mmHg 95%
17:00 +3°C° 0.4 mm 5 mps 752 mmHg 95%
18:00 +3°C° 0.4 mm 5 mps 752 mmHg 94%
19:00 +3°C° 0.4 mm 5 mps 752 mmHg 94%
20:00 +3°C° 0.1 mm 5 mps 752 mmHg 94%
21:00 +3°C° 0.1 mm 5 mps 752 mmHg 94%
22:00 +2°C° 0.1 mm 5 mps 752 mmHg 94%
23:00 +2°C° 0.1 mm 5 mps 752 mmHg 95%

Day after tomorrow, 16 April, Friday

Time Temperature Precipitation Wind Pressure Humidity
00:00 +3°C° 0.1 mm 4 mps 752 mmHg 95%
01:00 +3°C° 0.1 mm 4 mps 752 mmHg 96%
02:00 +3°C° 0.4 mm 4 mps 752 mmHg 96%
03:00 +3°C° 0.4 mm 4 mps 751 mmHg 97%
04:00 +3°C° 0.4 mm 3 mps 751 mmHg 97%
05:00 +3°C° 0.3 mm 3 mps 751 mmHg 97%
06:00 +3°C° 0.3 mm 3 mps 751 mmHg 97%
07:00 +3°C° 0.3 mm 3 mps 752 mmHg 97%
08:00 +3°C° 0.1 mm 3 mps 752 mmHg 96%
09:00 +3°C° 0.1 mm 3 mps 752 mmHg 95%
10:00 +3°C° 0.1 mm 3 mps 752 mmHg 95%
11:00 +4°C° 0.1 mm 3 mps 752 mmHg 95%
12:00 +4°C° 0.1 mm 3 mps 752 mmHg 95%
13:00 +4°C° 0.1 mm 3 mps 752 mmHg 95%
14:00 +4°C° 0.1 mm 3 mps 752 mmHg 95%
15:00 +4°C° 0.1 mm 3 mps 752 mmHg 96%
16:00 +5°C° 0.1 mm 3 mps 752 mmHg 96%
17:00 +5°C° 0 mm 3 mps 753 mmHg 96%
18:00 +5°C° 0 mm 3 mps 753 mmHg 97%
19:00 +5°C° 0 mm 3 mps 753 mmHg 97%
20:00 +5°C° 0 mm 3 mps 753 mmHg 97%
21:00 +5°C° 0 mm 3 mps 753 mmHg 97%
22:00 +5°C° 0 mm 3 mps 753 mmHg 97%
23:00 +5°C° 0 mm 3 mps 753 mmHg 97%

17 April, Saturday

Time Temperature Precipitation Wind Pressure Humidity
00:00 +5°C° 0 mm 3 mps 753 mmHg 97%
01:00 +5°C° 0 mm 3 mps 753 mmHg 97%
02:00 +5°C° 0 mm 3 mps 753 mmHg 97%
03:00 +5°C° 0 mm 3 mps 753 mmHg 97%
04:00 +5°C° 0 mm 3 mps 753 mmHg 97%
05:00 +5°C° 0.3 mm 3 mps 753 mmHg 97%
06:00 +5°C° 0.3 mm 3 mps 753 mmHg 97%
07:00 +5°C° 0.3 mm 3 mps 753 mmHg 96%
08:00 +7°C° 0.1 mm 3 mps 753 mmHg 94%
09:00 +8°C° 0.1 mm 3 mps 753 mmHg 92%
10:00 +8°C° 0.1 mm 3 mps 753 mmHg 90%
11:00 +9°C° 0 mm 3 mps 753 mmHg 85%
12:00 +10°C° 0 mm 3 mps 753 mmHg 79%
13:00 +11°C° 0 mm 3 mps 753 mmHg 74%
14:00 +11°C° 0.2 mm 3 mps 753 mmHg 74%
15:00 +11°C° 0.2 mm 4 mps 753 mmHg 74%
16:00 +11°C° 0.2 mm 4 mps 753 mmHg 75%
17:00 +10°C° 0.6 mm 3 mps 753 mmHg 81%
18:00 +9°C° 0.6 mm 3 mps 753 mmHg 87%
19:00 +9°C° 0.6 mm 3 mps 753 mmHg 93%
20:00 +8°C° 0.3 mm 3 mps 753 mmHg 93%
21:00 +7°C° 0.3 mm 3 mps 753 mmHg 94%
22:00 +7°C° 0.3 mm 3 mps 753 mmHg 95%
23:00 +5°C° 0 mm 3 mps 753 mmHg 95%

18 April, Sunday

Time Temperature Precipitation Wind Pressure Humidity
00:00 +5°C° 0 mm 3 mps 753 mmHg 95%
01:00 +4°C° 0 mm 3 mps 753 mmHg 95%
02:00 +4°C° 0 mm 3 mps 754 mmHg 95%
03:00 +3°C° 0 mm 3 mps 754 mmHg 96%
04:00 +4°C° 0 mm 2 mps 754 mmHg 96%
05:00 +4°C° 0 mm 3 mps 754 mmHg 93%
06:00 +5°C° 0 mm 3 mps 754 mmHg 90%
07:00 +7°C° 0 mm 3 mps 754 mmHg 86%
08:00 +7°C° 0 mm 3 mps 754 mmHg 84%
09:00 +7°C° 0 mm 4 mps 754 mmHg 81%
10:00 +7°C° 0 mm 4 mps 754 mmHg 79%
11:00 +8°C° 0 mm 4 mps 754 mmHg 77%
12:00 +8°C° 0 mm 4 mps 754 mmHg 76%
13:00 +10°C° 0 mm 4 mps 754 mmHg 74%
14:00 +10°C° 0 mm 4 mps 754 mmHg 71%
15:00 +11°C° 0 mm 3 mps 754 mmHg 68%
16:00 +12°C° 0 mm 3 mps 754 mmHg 64%
17:00 +11°C° 0 mm 3 mps 754 mmHg 69%
18:00 +10°C° 0 mm 2 mps 754 mmHg 75%
19:00 +9°C° 0 mm 2 mps 754 mmHg 80%
20:00 +8°C° 0 mm 2 mps 754 mmHg 81%
21:00 +8°C° 0 mm 2 mps 754 mmHg 83%
22:00 +8°C° 0 mm 2 mps 754 mmHg 84%
23:00 +8°C° 0.2 mm 2 mps 754 mmHg 87%

19 April, Monday

Time Temperature Precipitation Wind Pressure Humidity
00:00 +8°C° 0.2 mm 2 mps 754 mmHg 89%
01:00 +8°C° 0.2 mm 2 mps 754 mmHg 92%
02:00 +8°C° 0.5 mm 2 mps 754 mmHg 93%
03:00 +8°C° 0.5 mm 2 mps 753 mmHg 95%
04:00 +8°C° 0.5 mm 2 mps 753 mmHg 96%
05:00 +8°C° 0.4 mm 3 mps 753 mmHg 96%
06:00 +8°C° 0.4 mm 3 mps 753 mmHg 96%
07:00 +7°C° 0.4 mm 4 mps 753 mmHg 95%
08:00 +8°C° 0.1 mm 4 mps 753 mmHg 93%
09:00 +8°C° 0.1 mm 4 mps 753 mmHg 92%
10:00 +8°C° 0.1 mm 5 mps 753 mmHg 90%
11:00 +8°C° 0.3 mm 5 mps 753 mmHg 90%
12:00 +8°C° 0.3 mm 5 mps 753 mmHg 90%
13:00 +8°C° 0.3 mm 5 mps 753 mmHg 90%
14:00 +8°C° 0.4 mm 5 mps 752 mmHg 91%
15:00 +7°C° 0.4 mm 5 mps 752 mmHg 92%
16:00 +7°C° 0.4 mm 5 mps 752 mmHg 93%
17:00 +7°C° 0.1 mm 5 mps 752 mmHg 93%
18:00 +8°C° 0.1 mm 4 mps 752 mmHg 92%
19:00 +8°C° 0.1 mm 4 mps 752 mmHg 92%
20:00 +8°C° 0 mm 4 mps 752 mmHg 93%
21:00 +8°C° 0 mm 4 mps 752 mmHg 93%
22:00 +8°C° 0 mm 4 mps 752 mmHg 94%
23:00 +8°C° 0 mm 4 mps 752 mmHg 94%
Show more